TimeEDT,TemperatureF,Dew PointF,Humidity,Sea Level PressureIn,VisibilityMPH,Wind Direction,Wind SpeedMPH,Gust SpeedMPH,PrecipitationIn,Events,Conditions,WindDirDegrees,DateUTC
12:56 AM,66.0,54.0,65,29.68,10.0,WNW,12.7,20.7,N/A,,Clear,290,2013-06-12 04:56:00
1:56 AM,66.0,54.0,65,29.69,10.0,West,12.7,18.4,N/A,,Partly Cloudy,280,2013-06-12 05:56:00
2:56 AM,66.0,55.0,68,29.69,10.0,WNW,16.1,21.9,N/A,,Mostly Cloudy,290,2013-06-12 06:56:00
3:56 AM,64.9,52.0,63,29.68,10.0,WNW,18.4,32.2,N/A,,Clear,290,2013-06-12 07:56:00
4:56 AM,64.0,52.0,65,29.70,10.0,WNW,18.4,32.2,N/A,,Partly Cloudy,290,2013-06-12 08:56:00
5:56 AM,63.0,50.0,63,29.71,10.0,WNW,18.4,31.1,N/A,,Partly Cloudy,290,2013-06-12 09:56:00
6:56 AM,63.0,51.1,65,29.73,10.0,WNW,19.6,27.6,N/A,,Scattered Clouds,300,2013-06-12 10:56:00
7:56 AM,64.0,50.0,60,29.75,10.0,NW,15.0,25.3,N/A,,Clear,310,2013-06-12 11:56:00
8:56 AM,66.0,51.1,59,29.75,10.0,WNW,18.4,27.6,N/A,,Clear,300,2013-06-12 12:56:00
9:56 AM,66.9,51.1,57,29.75,10.0,NW,18.4,24.2,N/A,,Scattered Clouds,310,2013-06-12 13:56:00
10:56 AM,69.1,51.1,53,29.77,10.0,NW,15.0,20.7,N/A,,Mostly Cloudy,310,2013-06-12 14:56:00
11:56 AM,69.1,51.1,53,29.78,10.0,NW,20.7,25.3,N/A,,Mostly Cloudy,320,2013-06-12 15:56:00
12:56 PM,71.1,51.1,49,29.79,10.0,NW,19.6,32.2,N/A,,Scattered Clouds,310,2013-06-12 16:56:00
1:56 PM,69.1,50.0,51,29.80,10.0,NW,13.8,-,N/A,,Mostly Cloudy,310,2013-06-12 17:56:00
2:56 PM,71.1,52.0,51,29.80,10.0,WNW,17.3,23.0,N/A,,Mostly Cloudy,300,2013-06-12 18:56:00
3:56 PM,73.0,52.0,48,29.79,10.0,NW,13.8,25.3,N/A,,Mostly Cloudy,320,2013-06-12 19:56:00
4:56 PM,73.0,52.0,48,29.79,10.0,NNW,12.7,-,N/A,,Scattered Clouds,330,2013-06-12 20:56:00
5:56 PM,71.1,51.1,49,29.81,10.0,NW,10.4,-,N/A,,Scattered Clouds,310,2013-06-12 21:56:00
6:56 PM,72.0,51.1,48,29.81,10.0,NW,10.4,-,N/A,,Scattered Clouds,320,2013-06-12 22:56:00
7:56 PM,70.0,51.1,51,29.83,10.0,NNE,4.6,-,N/A,,Partly Cloudy,20,2013-06-12 23:56:00
8:56 PM,64.0,54.0,70,29.84,10.0,Calm,Calm,-,N/A,,Clear,0,2013-06-13 00:56:00
9:56 PM,62.1,55.0,78,29.84,10.0,Calm,Calm,-,N/A,,Clear,0,2013-06-13 01:56:00
10:56 PM,60.1,55.9,86,29.83,10.0,NW,4.6,-,N/A,,Clear,320,2013-06-13 02:56:00
11:56 PM,59.0,55.0,87,29.83,10.0,WNW,4.6,-,N/A,,Clear,300,2013-06-13 03:56:00